カタログに戻る

STARLINK-36589

運用中通信VLEO
NORAD 67843·PAYLOAD·🇺🇸 United States

打ち上げ Feb 16, 2026 から Vandenberg Space Force Base

Loading…

次のパス (今後24時間)

TLE

最新Source: CelesTrak SupGP

元期: Sep 14, 2026, 22:57 UTC

1 67843C 26033Y   26257.95673611  .00037252  00000+0  13494-2 0  2570
2 67843  43.0005 277.9558 0001338 262.9628  52.2782 15.27556950    17

AllMySatでSTARLINK-36589をリアルタイム追跡

Download on the App Store